Total_Precipitation_Accumulation
0.02 0.04 0.09 0.08 0.04 0.04 0.06 0.09 0.11 0.10 0.08 0.07 0.06 0.04 0.03 0.02 0.02 0.02 0.02 0.03 0.03 0.04 0.04 0.04 0.04 0.04 0.04 0.04 0.04 0.04 0.03 0.04 0.07 0.11 0.16 0.20 0.23 0.33 0.44 0.59 0.78 0.66 0.44
0.01 0.03 0.08 0.10 0.06 0.05 0.06 0.08 0.10 0.10 0.09 0.07 0.06 0.04 0.03 0.02 0.02 0.02 0.02 0.03 0.03 0.04 0.04 0.03 0.03 0.03 0.03 0.03 0.02 0.02 0.02 0.04 0.10 0.18 0.26 0.29 0.31 0.41 0.44 0.51 0.74 0.54 0.36
0.01 0.02 0.05 0.09 0.07 0.06 0.05 0.07 0.08 0.08 0.08 0.07 0.05 0.03 0.03 0.03 0.03 0.02 0.02 0.03 0.04 0.04 0.04 0.03 0.03 0.03 0.03 0.03 0.02 0.02 0.03 0.07 0.17 0.30 0.56 0.52 0.28 0.42 0.43 0.49 0.53 0.33 0.27
0.01 0.02 0.02 0.06 0.08 0.06 0.06 0.06 0.08 0.08 0.07 0.06 0.04 0.03 0.03 0.02 0.03 0.03 0.03 0.04 0.04 0.05 0.05 0.04 0.03 0.03 0.02 0.02 0.03 0.04 0.06 0.10 0.18 0.38 0.76 0.57 0.27 0.29 0.32 0.34 0.32 0.22 0.20
0.02 0.02 0.02 0.05 0.06 0.06 0.06 0.07 0.07 0.07 0.06 0.05 0.03 0.03 0.03 0.03 0.03 0.03 0.04 0.05 0.05 0.06 0.06 0.06 0.05 0.02 0.01 0.02 0.03 0.05 0.07 0.12 0.23 0.38 0.45 0.53 0.58 0.35 0.28 0.27 0.27 0.21 0.18
0.02 0.02 0.04 0.07 0.07 0.07 0.07 0.07 0.08 0.07 0.05 0.04 0.03 0.03 0.03 0.03 0.04 0.05 0.05 0.06 0.06 0.07 0.07 0.06 0.05 0.03 0.02 0.02 0.03 0.05 0.08 0.14 0.26 0.30 0.26 0.38 0.52 0.37 0.34 0.31 0.26 0.21 0.16
0.03 0.03 0.05 0.09 0.09 0.08 0.07 0.08 0.07 0.06 0.05 0.04 0.03 0.03 0.04 0.05 0.05 0.06 0.07 0.07 0.07 0.08 0.08 0.07 0.05 0.04 0.03 0.03 0.03 0.05 0.09 0.16 0.28 0.28 0.25 0.43 0.53 0.40 0.59 0.64 0.47 0.31 0.17
0.04 0.04 0.06 0.08 0.09 0.09 0.08 0.08 0.08 0.07 0.06 0.05 0.05 0.05 0.05 0.06 0.08 0.09 0.09 0.08 0.09 0.10 0.11 0.10 0.08 0.07 0.05 0.04 0.04 0.07 0.13 0.16 0.22 0.28 0.32 0.48 0.42 0.43 0.81 0.93 0.77 0.60 0.39
0.06 0.05 0.06 0.07 0.09 0.10 0.11 0.10 0.09 0.08 0.08 0.07 0.07 0.07 0.08 0.08 0.09 0.11 0.12 0.12 0.13 0.15 0.16 0.15 0.14 0.12 0.10 0.08 0.10 0.15 0.19 0.20 0.25 0.30 0.34 0.50 0.40 0.48 0.90 0.95 0.77 0.67 0.52
0.10 0.09 0.08 0.09 0.13 0.13 0.12 0.12 0.11 0.11 0.10 0.09 0.09 0.11 0.13 0.14 0.16 0.20 0.19 0.20 0.23 0.25 0.26 0.26 0.26 0.26 0.24 0.20 0.18 0.18 0.16 0.13 0.16 0.24 0.44 0.52 0.45 0.67 0.98 1.00 0.93 0.83 0.66
0.15 0.13 0.12 0.14 0.15 0.16 0.16 0.15 0.17 0.18 0.17 0.17 0.20 0.20 0.24 0.35 0.43 0.48 0.42 0.45 0.45 0.47 0.49 0.50 0.50 0.51 0.48 0.39 0.35 0.31 0.22 0.18 0.26 0.24 0.47 0.53 0.58 0.85 1.07 1.12 1.08 0.99 0.86
0.20 0.14 0.16 0.20 0.18 0.20 0.21 0.28 0.40 0.43 0.48 0.46 0.52 0.52 0.59 0.67 0.62 0.54 0.61 0.76 0.84 0.94 0.95 0.93 1.00 0.95 0.75 0.56 0.66 0.86 0.40 0.30 0.30 0.30 0.39 0.46 0.66 0.93 1.17 1.25 1.10 1.01 0.94
0.26 0.20 0.21 0.26 0.27 0.28 0.35 0.38 0.52 0.69 0.88 0.86 0.84 0.93 0.97 0.92 0.77 0.69 0.84 1.04 1.13 1.26 1.27 1.44 1.60 1.31 1.19 1.12 1.13 1.09 0.71 0.61 0.49 0.41 0.56 0.78 0.93 1.18 1.41 1.35 1.28 1.17 1.09
0.48 0.41 0.41 0.48 0.51 0.52 0.58 0.63 0.68 0.74 0.87 0.97 0.99 1.00 1.18 1.18 1.12 1.07 1.06 1.10 1.20 1.31 1.53 1.65 1.76 1.81 1.79 1.53 1.39 1.27 1.11 1.02 0.85 0.79 1.01 1.27 1.30 1.43 1.64 1.54 1.45 1.34 1.25
0.78 0.81 0.87 0.86 0.84 0.89 0.96 0.93 0.81 0.84 0.87 0.92 1.06 1.11 1.30 1.40 1.43 1.45 1.36 1.33 1.21 1.36 1.63 1.83 1.79 1.94 2.07 1.89 1.63 1.51 1.34 1.18 1.09 1.06 1.24 1.43 1.32 1.35 1.56 1.66 1.64 1.54 1.50
1.11 1.30 1.31 1.25 1.25 1.26 1.26 1.23 1.15 1.05 1.02 1.03 1.14 1.27 1.51 1.62 1.64 1.66 1.55 1.46 1.23 1.30 1.53 1.78 1.82 1.98 1.96 1.97 1.60 1.49 1.36 1.34 1.21 1.16 1.27 1.44 1.38 1.24 1.29 1.51 1.68 1.74 1.72
1.43 1.57 1.58 1.62 1.69 1.78 1.76 1.54 1.35 1.18 1.11 1.21 1.41 1.61 1.77 1.89 1.90 1.91 1.73 1.49 1.37 1.55 1.65 1.65 1.70 2.07 1.91 1.77 1.55 1.61 1.57 1.50 1.32 1.24 1.29 1.37 1.23 1.16 1.12 1.19 1.42 1.62 1.84
1.79 1.89 1.95 1.98 2.21 2.29 2.15 1.90 1.73 1.63 1.63 1.58 1.64 1.81 1.80 1.84 1.90 2.03 1.72 1.42 1.58 1.77 1.72 1.65 1.69 1.91 1.90 1.96 1.84 1.71 1.61 1.47 1.17 1.12 1.12 1.09 1.14 0.95 1.03 1.20 1.31 1.40 1.74
2.33 2.49 2.59 2.79 2.89 2.64 2.37 2.15 2.01 1.90 1.79 1.59 1.41 1.36 1.29 1.26 1.32 1.37 1.06 0.99 1.26 1.35 1.23 1.20 1.45 1.60 1.60 1.74 1.74 1.50 1.31 1.15 0.97 0.92 0.93 0.79 0.88 0.88 0.89 1.09 1.26 1.33 1.64
2.60 3.07 3.36 3.33 2.92 2.51 2.18 1.90 1.75 1.59 1.46 1.30 1.11 0.99 0.87 0.84 0.87 0.90 0.73 0.73 0.99 1.05 0.97 1.09 1.20 1.24 1.18 1.25 1.16 0.92 0.89 0.77 0.78 0.74 0.65 0.65 0.66 0.67 0.78 0.94 1.15 1.06 1.41
2.95 3.60 3.72 3.24 2.74 2.29 1.94 1.63 1.33 1.08 0.99 0.94 0.80 0.73 0.71 0.73 0.75 0.83 0.72 0.80 0.95 0.95 0.92 0.98 1.04 0.97 0.81 0.98 1.04 0.76 0.60 0.56 0.58 0.54 0.51 0.50 0.46 0.51 0.70 0.90 1.07 1.12 1.04
2.76 3.14 3.08 2.61 2.09 1.57 1.24 1.11 0.95 0.79 0.68 0.58 0.52 0.54 0.50 0.56 0.63 0.72 0.67 0.58 0.63 0.66 0.61 0.65 0.82 0.84 0.74 0.87 0.96 0.84 0.60 0.55 0.50 0.37 0.42 0.42 0.42 0.52 0.64 0.74 0.95 1.12 1.12
2.45 2.26 2.04 1.63 1.11 0.85 0.66 0.60 0.53 0.51 0.48 0.39 0.34 0.35 0.33 0.35 0.39 0.47 0.50 0.50 0.55 0.62 0.61 0.61 0.65 0.69 0.63 0.64 0.79 0.90 0.70 0.49 0.42 0.38 0.39 0.39 0.45 0.58 0.67 0.80 0.86 0.94 1.04
1.77 1.40 1.08 0.91 0.64 0.48 0.43 0.43 0.43 0.38 0.38 0.31 0.27 0.26 0.24 0.24 0.27 0.30 0.34 0.34 0.41 0.52 0.59 0.55 0.55 0.58 0.57 0.50 0.56 0.65 0.66 0.61 0.54 0.42 0.40 0.44 0.48 0.59 0.74 0.83 0.93 0.95 0.98
0.98 0.82 0.70 0.68 0.55 0.49 0.47 0.47 0.48 0.34 0.27 0.24 0.22 0.21 0.21 0.24 0.26 0.27 0.28 0.29 0.32 0.36 0.39 0.43 0.49 0.52 0.54 0.50 0.49 0.56 0.63 0.66 0.65 0.57 0.47 0.46 0.44 0.41 0.56 0.75 0.90 0.95 0.91
0.43 0.46 0.49 0.61 0.64 0.53 0.43 0.38 0.37 0.32 0.27 0.23 0.19 0.19 0.20 0.22 0.26 0.29 0.30 0.31 0.33 0.33 0.34 0.37 0.40 0.44 0.50 0.54 0.53 0.56 0.65 0.70 0.66 0.65 0.57 0.50 0.47 0.42 0.47 0.65 0.90 1.03 1.00